Home > Weather > Salzwedel > Past weeks

Flag for Germany Past Weather in Salzwedel, Saxony-Anhalt, Germany — Yesterday and Last 2 Weeks

Now
75 °F

Passing clouds.


Feels Like: 78 °F
Forecast: 66 / 92 °F
Wind: 12 mph from South

Location: Fassberg

Current Time: Aug 26, 2016 at 12:11:36 AM

Latest Report: Aug 25, 2016 at 11:20 PM


Visibility: N/A

Pressure: 29.98 "Hg

Humidity: 41%

Dew Point: 50 °F

Location of SalzwedelLocation

Past Weather in Salzwedel — Graph

°F

Salzwedel Temperature Yesterday

Maximum temperature yesterday: 91 °F (at 4:20 PM)
Minimum temperature yesterday: 57 °F (at 6:20 AM)
Average temperature yesterday: 76 °F

High & Low Weather Summary for the Past Weeks

 TemperatureHumidityPressure
High91 °F (Aug 25, 4:20 PM)100% (Aug 12, 2:20 AM)30.33 "Hg (Aug 12, 2:20 AM)
Low39 °F (Aug 17, 6:20 AM)24% (Aug 25, 4:20 PM)29.80 "Hg (Aug 20, 12:20 AM)
Average62 °F76%30.09 "Hg
* Reported Aug 10 10:20 PM — Aug 25 10:20 PM, Salzwedel, Weather by CustomWeather, © 2016

Note: Actual official high and low records may vary slightly from our data, if they occured in-between our weather recording intervals... More about our weather records

Advertising

Salzwedel Weather History for the Previous 24 Hours

Scroll right to see more
 ConditionsComfort  
Time TempWeatherWind HumidityBarometerVisibility
10:20 PM
Thu, Aug 25
68 °FPassing clouds.5 mph49%30.01 "HgN/A
9:20 PM70 °FPassing clouds.5 mph53%30.01 "HgN/A
8:20 PM77 °FPassing clouds.6 mph39%30.01 "HgN/A
7:20 PM86 °FPleasantly warm.9 mph27%30.01 "HgN/A
6:20 PM90 °FHot.12 mph24%30.01 "HgN/A
5:20 PM90 °FPassing clouds.10 mph26%30.04 "HgN/A
4:20 PM91 °FPassing clouds.13 mph24%30.04 "HgN/A
3:20 PM90 °FPassing clouds.12 mph27%30.07 "HgN/A
2:20 PM88 °FPassing clouds.8 mph33%30.07 "HgN/A
1:20 PM86 °FPassing clouds.10 mph38%30.09 "HgN/A
12:20 PM84 °FScattered clouds.8 mph40%30.12 "HgN/A
11:20 AM82 °FPassing clouds.7 mph42%30.12 "HgN/A
10:20 AM79 °FPassing clouds.3 mph51%30.12 "HgN/A
9:20 AM73 °FPassing clouds.5 mph61%30.12 "HgN/A
8:20 AM68 °FPassing clouds.5 mph69%30.12 "HgN/A
7:20 AM61 °FPassing clouds.5 mph83%30.15 "HgN/A
6:20 AM57 °FPassing clouds.5 mph88%30.15 "HgN/A
5:20 AM63 °FPassing clouds.5 mph73%30.15 "HgN/A
4:20 AM68 °FMild.8 mph64%30.15 "HgN/A
3:20 AM70 °FMild.9 mph60%30.15 "HgN/A
2:20 AM66 °FMild.5 mph68%30.15 "HgN/A
1:20 AM66 °FMild.5 mph68%30.18 "HgN/A
12:20 AM68 °FMild.5 mph69%30.18 "HgN/A
Weather by CustomWeather, © 2016

See weather overviewHow to use our weather pages